RH
7 8 8 8 9 11 12 14 14 14 19 24 23 25 23 28 27 27 28 32 31 33 32 34 37 37 39 43 50 56 59 63 60 57 54 52 52 75 54 50 59 58 60 59
7 8 7 7 8 10 11 13 14 15 22 23 21 24 23 23 30 28 27 30 32 31 32 36 38 38 40 46 51 58 62 66 66 54 57 50 50 44 44 48 55 60 58 60
8 5 6 6 8 11 13 14 14 16 23 22 20 24 23 20 24 28 26 25 27 31 30 33 37 39 38 45 52 56 64 66 67 64 57 60 58 58 53 51 51 52 59 59
7 4 6 7 8 10 15 12 13 16 22 25 22 22 19 19 24 27 28 25 24 28 30 29 32 36 38 41 46 55 62 68 64 69 63 70 55 50 41 45 42 46 56 56
9 7 7 8 7 8 12 10 13 14 19 19 23 26 19 19 23 23 25 24 22 22 23 26 27 31 35 37 40 48 60 69 69 70 72 59 68 46 46 46 58 65 61 61
8 6 5 6 5 6 8 11 13 13 15 23 19 22 20 18 25 19 20 22 22 20 20 22 24 26 30 32 37 42 59 73 71 68 70 74 68 63 49 56 53 45 43 52
10 8 6 5 6 6 8 12 21 24 22 23 16 19 21 14 12 15 14 18 20 20 19 22 24 24 30 33 38 40 60 75 71 67 67 72 72 69 69 65 56 47 40 42
14 12 8 6 6 7 8 11 17 30 21 19 17 22 17 15 12 11 10 13 16 20 21 22 26 27 30 33 40 46 59 72 67 65 72 73 73 57 56 62 48 43 36 41
13 12 6 6 5 6 9 13 9 13 13 16 14 17 14 12 13 12 11 12 15 18 20 21 23 26 29 35 44 51 60 71 68 61 71 72 71 70 58 64 66 49 53 41
11 15 8 7 6 5 7 8 13 12 25 25 16 17 16 16 14 11 10 10 12 14 18 19 21 25 29 31 37 45 56 67 64 58 61 60 65 68 67 70 72 61 61 57
10 13 11 9 10 8 8 10 11 11 13 18 19 15 11 13 12 10 8 8 8 10 15 18 21 22 28 30 33 40 47 55 57 59 62 65 61 62 73 67 69 67 67 72
11 12 16 10 6 6 6 10 12 16 24 15 15 13 8 10 9 9 9 8 7 9 12 16 19 23 25 32 31 35 39 44 49 53 62 62 63 65 71 70 73 66 69 69
12 15 19 15 7 6 7 8 8 10 11 22 18 16 10 10 11 11 11 11 12 20 21 19 20 25 28 31 38 34 36 36 37 47 50 58 63 68 72 72 67 68 68 67
22 15 20 16 14 9 11 8 7 8 14 14 14 15 12 11 11 11 11 11 11 17 25 26 26 27 31 35 43 43 36 33 35 39 46 60 67 71 66 69 70 64 64 69
12 22 17 14 10 9 9 8 7 8 10 13 12 14 13 12 11 11 9 9 10 20 27 30 29 30 37 40 45 44 40 41 38 44 48 58 70 71 70 71 72 67 66 65
18 27 24 21 13 11 11 10 9 8 8 8 9 12 9 9 10 10 10 9 12 17 26 30 33 33 38 41 45 46 46 44 46 49 53 63 70 74 72 76 76 75 70 77
20 21 28 28 17 16 18 13 11 11 9 8 11 11 9 10 10 12 14 12 13 13 21 27 32 35 39 39 45 47 50 48 54 57 61 66 72 76 75 71 74 78 73 63
28 34 24 24 22 29 15 11 10 11 10 8 8 8 9 10 10 10 14 14 14 14 15 22 24 29 35 34 39 45 46 55 61 64 66 68 74 75 75 75 75 75 66 70
22 34 28 30 24 20 15 13 15 14 15 10 9 9 8 8 11 17 16 16 19 18 18 20 22 26 36 36 41 48 50 56 61 66 68 69 70 73 75 77 75 72 72 73
22 32 33 31 31 32 37 34 33 31 24 11 10 11 10 10 14 16 16 22 21 20 22 29 28 28 34 38 39 51 54 61 63 63 65 67 69 73 75 79 79 75 70 76
40 39 38 31 31 25 44 37 33 34 28 37 12 11 11 14 14 28 28 28 27 28 31 32 33 37 43 42 48 56 57 60 57 56 62 68 70 77 82 78 78 75 73 77
40 39 30 28 38 39 42 37 36 51 43 36 33 30 25 23 35 35 37 39 38 41 39 40 46 49 48 52 56 60 62 63 63 65 66 72 75 73 75 80 79 86 86 89
35 28 27 38 36 50 42 51 43 41 48 44 37 33 34 34 36 38 40 42 41 41 41 43 51 60 60 59 62 69 77 72 71 71 76 80 83 80 77 83 86 86 92 89
50 41 39 52 55 50 41 41 39 36 38 38 38 35 33 36 35 37 38 39 40 40 40 40 49 58 66 69 67 73 74 75 77 79 82 86 87 89 88 80 85 88 95 96
71 62 51 54 56 50 51 48 38 37 34 34 34 38 42 44 46 48 51 50 50 53 54 52 55 61 68 70 72 70 77 75 80 78 76 84 91 92 91 89 80 74 81 76
86 93 46 42 48 54 66 57 46 50 43 41 42 40 35 35 39 44 55 58 62 67 61 64 65 66 71 70 76 78 72 74 72 72 70 66 66 62 57 60 62 96 92 99
Wind_Speed
21 18 22 24 21 20 15 15 14 13 14 16 14 13 11 11 16 18 18 19 20 20 19 19 19 18 17 15 15 15 14 14 10 10 9 8 8 6 7 8 8 9 8 10
16 22 22 20 21 23 17 18 17 13 9 15 13 15 13 13 16 17 19 20 20 20 19 19 19 19 19 17 16 16 16 15 13 10 8 7 6 7 6 7 5 7 7 8
19 19 19 20 20 23 21 20 18 14 12 15 9 14 16 16 17 16 20 20 22 21 21 21 21 20 19 19 18 17 17 16 15 14 9 7 6 6 6 7 6 7 8 7
20 17 22 19 24 22 23 21 17 15 14 13 15 11 13 16 18 19 20 21 22 23 21 21 22 22 21 19 18 19 18 17 16 16 12 12 9 9 6 5 4 4 5 5
19 21 20 23 23 23 22 17 16 18 18 17 15 10 12 5 13 18 22 23 23 23 22 23 23 22 22 21 19 18 18 17 16 15 14 12 13 9 7 6 3 7 5 7
21 14 19 22 21 23 19 12 15 18 16 19 21 15 13 13 15 16 16 22 24 24 23 22 21 21 21 20 20 19 19 17 17 17 17 16 14 12 9 7 7 7 6 7
22 20 17 17 23 24 21 18 12 15 16 15 20 17 15 8 12 14 14 19 22 23 23 22 23 22 21 22 21 19 18 18 18 19 18 18 17 14 13 10 9 6 6 6
21 24 26 18 26 25 28 26 15 24 16 14 17 15 18 19 20 19 15 11 17 23 23 24 25 23 23 23 22 20 18 19 20 19 18 15 16 11 11 11 8 7 6 6
21 27 27 24 19 26 27 29 24 23 20 18 17 15 22 13 17 17 16 14 15 20 24 26 26 25 24 23 22 21 20 19 20 20 15 16 14 15 11 10 10 8 7 6
13 16 21 24 21 27 28 22 25 21 24 22 20 21 12 18 19 19 17 14 17 18 21 23 25 26 24 24 22 22 21 21 20 20 18 16 16 15 13 12 12 10 10 10
24 15 18 20 27 24 22 20 26 22 21 18 19 17 15 14 12 12 12 13 13 14 18 21 22 24 24 22 22 22 22 22 20 19 18 16 16 17 14 14 14 14 11 10
26 15 17 24 25 27 25 25 27 18 25 19 21 16 18 20 18 21 20 15 10 9 11 17 20 22 23 24 22 22 22 21 22 20 18 19 17 17 17 16 15 14 14 13
22 21 15 19 20 24 29 27 27 26 21 26 21 17 16 11 11 12 14 13 10 7 10 13 17 20 21 22 20 22 21 22 21 18 19 18 18 18 19 18 16 15 14 14
8 18 24 18 22 20 21 26 28 28 22 20 23 21 23 22 18 17 12 13 14 10 10 13 15 19 20 19 18 19 20 19 18 19 19 17 18 19 20 18 19 17 17 17
16 17 16 25 23 24 24 25 25 28 28 28 22 28 21 23 17 19 18 16 15 9 13 15 17 17 18 19 17 17 17 16 16 17 17 17 15 17 18 17 18 17 19 17
13 14 18 21 24 24 21 25 27 28 28 28 31 30 21 22 24 21 21 19 18 14 15 16 17 18 20 20 18 16 16 16 15 16 17 15 16 17 18 19 18 16 17 15
17 14 17 18 21 23 26 27 27 29 28 28 29 23 24 27 24 24 21 21 19 18 16 15 19 19 17 17 16 16 16 16 16 16 15 16 16 16 18 18 18 17 18 15
13 17 15 15 17 22 18 23 25 27 27 30 27 24 23 26 22 23 23 20 18 18 18 14 14 15 16 16 17 16 16 16 16 15 16 15 16 16 16 17 19 18 17 16
17 12 14 15 16 13 15 12 14 24 27 25 25 22 25 22 16 16 17 16 18 16 14 12 13 15 16 17 17 17 17 16 15 15 14 15 14 14 15 17 17 16 15 14
19 18 15 10 19 18 7 9 9 11 14 24 24 25 24 18 15 16 9 12 14 9 10 11 14 15 17 17 18 18 17 15 15 15 14 13 12 12 12 12 12 13 14 12
16 17 20 17 13 9 6 7 2 7 5 22 22 25 22 21 14 3 5 8 6 6 8 11 13 13 14 15 16 16 16 14 13 12 12 11 12 13 10 12 10 11 12 9
21 16 13 12 12 16 6 5 5 7 12 12 11 12 15 11 9 10 10 11 14 14 15 16 15 14 14 15 14 14 14 12 12 12 12 10 8 6 6 9 9 9 8 8
19 15 11 6 3 7 4 2 2 4 7 11 0 6 10 13 12 15 16 17 17 15 15 16 16 16 13 14 13 13 13 12 12 12 11 10 9 8 5 7 8 7 7 6
3 8 5 10 6 8 11 11 10 14 7 4 9 12 14 15 16 13 14 16 17 15 15 15 16 16 14 11 11 13 11 11 11 10 9 8 8 9 5 4 4 4 4 4
6 6 11 14 12 13 11 12 12 12 11 10 15 16 15 14 14 12 13 13 12 15 14 13 12 13 13 12 12 12 13 13 11 11 11 9 9 9 7 7 5 1 6 3
7 5 4 8 11 12 10 10 8 10 9 10 14 17 16 16 16 14 13 13 12 11 12 12 12 11 11 11 12 11 11 11 11 12 9 9 9 9 8 8 7 12 9 5
Wind_Direction
192 205 208 203 214 228 219 207 207 200 158 202 208 216 197 194 213 211 198 199 201 204 200 198 199 198 200 199 196 201 204 200 206 201 209 214 219 214 234 260 242 245 234 244
181 216 206 212 211 230 234 218 218 162 172 215 210 231 222 206 213 217 214 204 210 208 204 199 200 203 201 201 203 203 209 207 208 207 215 235 233 238 245 228 252 252 249 229
209 199 214 213 210 217 223 229 221 197 178 221 250 239 229 217 208 219 221 218 210 214 209 203 203 206 206 203 205 206 208 210 210 221 208 206 236 245 235 236 241 227 237 240
222 209 205 207 224 209 219 220 230 212 187 221 198 250 206 206 203 217 216 215 216 210 212 210 206 207 208 208 206 208 209 209 211 209 219 215 225 233 229 242 245 258 228 226
199 209 200 213 212 210 229 221 226 236 209 238 177 247 261 189 227 211 217 211 214 214 211 211 207 206 207 206 207 206 209 209 213 203 220 207 224 230 232 223 216 236 188 215
227 196 215 224 214 222 220 237 233 233 233 225 227 209 238 213 223 232 219 213 211 209 208 210 210 204 204 205 207 206 203 206 204 207 205 217 224 226 224 202 204 209 201 192
212 196 212 212 213 211 210 208 204 215 219 233 212 233 233 249 221 227 238 206 212 209 208 204 206 201 202 204 205 206 201 204 204 206 207 210 217 216 218 213 216 218 207 201
205 209 200 193 213 202 209 212 221 213 220 219 238 231 232 241 260 269 259 250 198 209 208 208 203 204 202 205 203 205 199 203 202 203 207 207 211 214 214 208 232 211 211 204
202 226 195 212 211 219 200 218 227 242 222 235 222 214 248 242 261 261 253 227 223 204 209 208 205 204 203 204 204 201 200 201 202 201 202 206 205 216 209 214 206 202 194 183
225 224 216 197 210 220 230 204 219 229 232 226 239 232 219 222 230 237 236 227 222 215 210 211 209 204 203 203 204 203 200 201 200 203 202 206 202 202 204 195 200 197 180 185
229 220 208 206 208 203 208 230 215 232 227 240 227 233 219 241 242 243 245 222 228 224 212 211 208 209 200 204 202 203 203 203 202 201 198 200 199 196 191 199 195 182 187 173
222 209 240 210 215 222 209 214 215 224 221 234 251 241 224 223 231 247 247 255 284 255 231 211 205 204 201 202 205 200 205 203 204 201 195 196 192 189 194 193 186 182 170 178
206 225 212 232 205 219 226 211 224 217 234 225 230 231 240 195 227 260 249 257 263 244 243 221 202 196 200 200 203 203 203 206 205 200 200 199 194 192 193 194 178 177 168 174
294 214 224 216 218 192 212 233 229 227 226 235 241 231 226 224 233 238 239 259 268 260 230 204 199 194 197 200 198 203 206 206 203 198 202 198 192 195 200 186 179 179 177 182
221 229 230 231 245 223 220 209 225 235 240 240 238 242 226 239 232 250 259 258 268 247 219 199 196 197 193 196 198 201 205 203 203 201 199 199 197 203 206 193 184 183 184 189
216 230 236 234 234 242 242 228 230 224 232 241 245 247 243 223 241 242 247 251 251 245 223 204 199 198 196 196 195 191 194 196 198 194 200 192 192 202 206 199 196 189 192 192
218 221 235 238 225 238 238 240 233 233 230 235 237 238 234 243 238 235 239 242 243 245 227 207 204 201 195 190 187 185 184 184 186 195 189 193 195 202 209 202 200 194 199 201
225 218 220 239 229 237 244 241 237 244 236 231 234 241 228 236 230 231 229 238 240 239 243 212 202 197 190 184 175 175 176 180 183 185 190 191 192 203 203 205 201 202 206 211
225 237 221 237 229 237 226 215 259 243 237 240 234 232 234 220 227 253 245 239 239 244 241 221 195 181 180 175 169 169 169 170 176 186 190 186 193 201 200 203 205 209 205 210
221 217 248 199 245 235 50 23 354 327 257 236 234 217 225 230 232 243 207 216 229 233 218 192 179 168 175 171 162 162 162 164 173 182 185 183 186 198 201 209 215 200 207 214
194 199 213 230 229 206 32 341 152 213 309 321 242 235 225 230 238 353 185 182 146 158 156 153 152 159 157 151 150 151 152 164 169 166 160 166 180 187 187 195 209 201 209 219
196 197 210 229 216 224 5 210 243 359 324 311 277 254 240 214 167 149 136 126 120 125 126 122 118 127 135 137 145 139 141 142 150 150 152 160 162 176 191 183 202 202 193 215
197 210 209 257 168 86 78 75 51 24 1 347 56 151 153 160 151 143 136 121 114 115 118 119 119 116 116 126 135 135 139 146 148 141 139 146 148 162 161 181 188 195 198 211
96 125 141 169 125 91 100 82 59 69 69 50 54 89 105 113 113 116 106 106 107 100 99 106 108 107 105 103 98 110 117 121 126 123 131 131 140 113 151 188 201 209 184 207
360 296 144 100 126 110 78 68 71 75 70 71 77 84 85 82 76 76 73 78 83 89 86 81 84 94 97 97 101 112 119 125 116 132 130 115 104 108 100 80 16 3 69 18
345 345 226 158 145 112 86 57 40 62 77 69 70 61 52 60 63 65 65 66 57 65 82 87 89 88 92 95 99 116 126 119 127 120 134 140 144 162 164 156 132 54 38 20